Weather in Mayskiy

Russia / Orenburg Oblast     51°54′30″N   59°24′06″E
temp.,
°C
wind,
m/s
gust,
m/s
humid.,
%
clouds,
%
prec.,
mm/h
press.,
hPa
HPBL,
m
7 march, sun
sun723:00−8ssw2287100 0.0 101421
02:00−8ese2396100 0.3 101163
05:00−6ene6995100 1.8 1009286
08:00−4ene2698100 2.6 1005217
11:00−5n4497100 3.9 1003139
14:00−5n5795100 3.0 1003425
17:00−6nnw6993100 3.9 1005617
20:00−8nw4895100 0.4 1009246
8 march, mon
mon823:00−15nw588674 0.4 1013132
02:00−18wnw46890 0.0 101583
05:00−18wsw44930 0.0 101656
08:00−17ssw5109243 0.0 1016210
11:00−12sw7129071 0.0 1016429
14:00−8sw101786100 0.0 1014934
17:00−6sw111790100 0.2 10131174
20:00−6sw91691100 0.3 1013913
9 march, tue
tue923:00−6sw81690100 0.4 1014761
02:00−7sw81689100 0.1 1014551
05:00−9ssw81688100 0.1 1013442
08:00−9ssw71488100 0.0 1013419
11:00−7ssw81487100 0.0 1012494
14:00−4sw81488100 0.0 1012671
17:00−3sw71195100 0.6 1011767
20:00−4ssw61194100 0.5 1010420
10 march, wed
wed1023:00−5ssw5996100 0.8 1009351
02:00−5ssw61096100 1.0 1006417
05:00−6s61196100 1.6 1003362
08:00−5sw81294100 0.8 1002571
11:00−10w8138676 0.9 1004552
14:00−7w8127960 0.0 10061101
17:00−9w8138274 0.0 1008635
20:00−13wsw7138862 0.0 1011295
11 march, thu
thu1123:00−18w5109235 0.0 1014164
02:00−20w479429 0.0 1014120
05:00−21wsw589361 0.0 1015129
08:00−24w479250 0.0 101794
11:00−20w458825 0.0 1018216
14:00−17w47840 0.0 1019414
17:00−16w35860 0.0 1020136
20:00−20w59890 0.0 1023122